Weather in Verkhneye Talyzino

Russia / Nizhny Novgorod Oblast'     55°06′03″N   45°50′24″E
temp.,
°C
wind,
m/s
gust,
m/s
humid.,
%
clouds,
%
prec.,
mm/h
press.,
hPa
HPBL,
m
18 april, sun
sun1800:00+6ene513691 0.0 1022344
03:00+4ene310781 0.0 1022246
06:00+4ene39785 0.0 1022237
09:00+9ene58534 0.0 1021545
12:00+13ene563716 0.0 10211262
15:00+14ene563389 0.0 10211722
18:00+12ene584279 0.0 1021547
21:00+8ene7137089 0.0 1022509
19 april, mon
mon1900:00+6ene61276100 0.0 1023598
03:00+4ene61163100 0.0 1024437
06:00+3ene71267100 0.0 1025469
09:00+5e81156100 0.0 1025767
12:00+7e9114488 0.0 10251182
15:00+7e9114718 0.0 10251429
18:00+7e71055100 0.0 10251541
21:00+6e61261100 0.0 10261140
20 april, tue
tue2000:00+4ene6115780 0.0 1026885
03:00+2e6146192 0.0 1026591
06:00+2e7156662 0.0 1027677
09:00+5ese8134796 0.0 1027991
12:00+8ese9124019 0.0 10261306
15:00+10ese9113915 0.0 10251421
18:00+8ese8134457 0.0 10231152
21:00+6ese81543100 0.0 1022925
21 april, wed
wed2100:00+6se91745100 0.0 1020878
03:00+4se102066100 0.9 1018757
06:00+2se102286100 4.8 1017843
09:00+2se101990100 7.1 1016836
12:00+2se91789100 1.4 1017882
15:00+3se91790100 1.4 1016825
18:00+3sse81691100 0.2 1017712
21:00+3sse71594100 0.3 1018727
22 april, thu
thu2200:00+4s61197100 0.1 1019434
03:00+4s4996100 0.1 1020363
06:00+4s3794100 0.0 1022220
09:00+7ssw587857 0.0 1023553
12:00+10ssw576599 0.3 10231111
15:00+12ssw575899 0.6 10231395
18:00+10s3774100 0.6 1023331
21:00+8sse118992 0.9 102424